Location: ??????
(41.3164°N, 22.6615°E)
Time: 19:21:11
(UTC+00:00)

CAS-4A - Pass Details

Date: 12 July 2022
Orbit: 521 x 536 km, 43.0° (Epoch: 19 August)

Event Time Altitude Azimuth Distance (km) Brightness Sun altitude
Rises 21:48:15 0° 274° (W) 2,641 ? -25.9°
Reaches altitude 10° 21:50:29 10° 277° (W) 1,752 ? -26.0°
Enters shadow 21:51:55 21° 281° (WNW) 1,205 ? -26.0°
